Theta_e
310 310 310 310 310 310 310 310 310 310 311 311 312 313 314 314 315 316 315 315 315 316 315 315 315 316 316 318 318 319 324 328
308 309 309 309 309 308 308 309 309 310 309 310 310 312 312 313 313 313 313 314 313 313 313 313 313 314 315 315 315 316 319 319
307 307 308 308 307 308 307 307 308 309 308 308 309 310 311 311 311 312 311 311 311 311 311 311 311 311 310 312 313 313 314 314
305 306 306 305 305 306 306 306 307 308 307 306 308 309 309 309 309 308 308 307 307 306 306 306 306 307 303 302 305 307 308 308
304 304 304 305 305 306 305 305 306 305 305 306 306 306 305 304 303 303 302 302 303 302 302 303 303 304 300 299 301 306 307 307
304 303 303 305 304 304 304 304 304 304 304 304 303 301 300 300 300 301 301 301 300 299 299 300 300 301 298 297 298 304 306 306
302 302 302 303 302 303 301 301 302 302 301 300 300 299 299 300 300 301 301 300 298 299 299 299 299 300 297 296 299 303 304 304
301 301 301 301 302 300 298 298 299 298 298 297 300 301 301 300 300 300 301 301 299 299 298 300 300 300 298 296 298 302 305 305
299 299 299 299 298 297 296 297 294 293 297 300 301 301 300 300 300 301 301 300 300 300 299 300 302 302 303 297 296 304 304 304
296 295 295 295 296 295 294 290 293 297 298 298 298 298 299 301 301 302 304 301 301 303 300 299 302 304 301 299 297 296 301 306
293 292 292 294 294 291 288 292 295 295 294 295 297 300 302 302 302 302 300 300 300 302 303 300 299 303 306 299 297 298 296 301
291 291 290 288 289 290 292 294 293 292 292 294 298 300 302 303 303 303 304 299 300 301 302 301 303 305 303 303 304 304 299 302
290 288 287 287 289 289 290 291 292 290 291 293 297 301 302 302 300 301 300 303 301 299 300 303 301 300 302 298 297 299 304 307
287 287 287 286 287 288 289 290 290 289 290 291 295 298 300 300 299 299 298 296 295 294 292 293 299 296 294 293 292 291 293 296
287 286 286 286 286 287 287 288 289 289 289 289 293 296 299 298 298 298 298 303 300 296 294 293 292 292 291 291 294 292 292 297
287 286 285 285 286 286 287 287 287 287 288 289 293 296 298 299 299 300 301 303 301 306 301 295 294 292 293 293 293 297 309 307
286 285 285 284 284 285 287 286 286 286 287 288 290 295 297 299 301 302 302 303 303 306 302 300 301 296 297 296 296 310 313 313
284 284 284 284 284 286 287 288 287 286 287 287 288 291 296 299 302 301 302 301 302 302 303 300 301 305 304 304 307 306 309 314
287 287 285 285 284 288 287 288 288 285 286 287 286 288 292 296 299 301 301 303 303 304 305 301 288 305 307 306 308 308 309 314
286 287 286 286 286 287 288 287 288 289 286 285 285 285 286 288 291 296 298 300 302 303 306 306 291 308 308 306 308 310 310 316
Wind_Speed
8 7 8 8 8 9 9 9 9 10 10 11 12 12 13 13 14 14 15 15 16 17 17 18 19 19 20 20 21 22 21 21
7 6 7 8 8 10 10 10 10 11 12 13 13 13 13 13 14 14 14 15 15 15 16 17 18 18 19 20 21 22 21 21
5 6 7 8 8 9 9 10 12 12 13 14 14 14 14 14 14 14 14 14 14 15 16 17 17 16 14 17 16 17 19 21
7 8 10 11 11 11 12 13 13 13 13 15 15 14 14 14 14 14 14 15 15 15 16 17 18 13 16 12 12 15 16 17
7 9 9 10 11 11 14 14 14 14 14 14 13 13 13 14 14 15 14 15 15 15 17 17 17 16 15 12 14 17 17 16
11 10 11 11 12 12 12 13 13 13 13 13 13 14 14 14 14 15 15 14 13 14 14 15 16 14 18 16 20 20 19 17
10 10 12 13 13 13 13 14 13 13 13 13 13 13 14 14 15 15 15 14 14 14 16 16 18 18 19 17 16 16 16 15
12 13 13 12 12 13 13 13 12 12 12 13 14 14 14 15 16 16 15 15 14 12 14 16 19 18 19 16 17 12 16 13
14 13 13 12 12 12 12 12 12 12 13 14 14 15 15 15 15 14 14 12 14 14 14 14 17 16 17 18 19 15 13 12
13 12 12 12 11 11 12 11 12 12 13 14 15 15 11 11 14 15 14 11 14 15 12 11 12 13 14 14 15 14 15 13
12 12 13 11 12 10 10 11 11 12 13 14 15 14 13 12 14 13 10 10 11 13 12 8 9 11 8 7 13 13 14 10
12 12 12 12 10 9 10 11 11 12 13 14 14 14 13 13 12 13 10 8 10 12 9 9 10 8 6 6 7 7 3 6
11 10 8 10 11 11 10 10 11 11 12 12 13 11 12 13 11 10 11 12 10 10 10 10 9 9 8 7 10 8 6 5
8 8 8 11 11 11 10 11 11 11 11 10 10 11 11 10 10 12 13 14 18 15 13 10 9 10 17 16 15 14 8 5
8 10 11 11 11 11 12 11 11 11 11 11 10 11 10 9 10 10 10 11 9 8 8 9 11 13 13 10 6 4 2 3
10 10 11 11 12 13 12 12 12 12 11 14 10 10 10 9 9 10 8 8 9 9 6 5 10 8 6 4 4 3 4 1
10 9 11 13 13 14 14 12 13 12 9 8 10 10 9 10 8 9 10 9 9 9 9 11 13 11 11 12 4 5 5 3
11 11 13 13 14 14 13 14 14 10 9 13 11 10 9 9 7 8 6 7 7 7 4 7 7 8 8 8 8 7 5 2
12 12 13 15 15 15 14 15 12 8 8 8 13 7 10 10 10 10 10 9 4 7 7 7 5 4 7 7 6 6 5 2
13 13 15 16 16 15 15 16 14 9 9 9 8 9 8 10 11 10 10 10 11 11 10 7 5 7 7 5 6 7 6 8
Wind_Direction
59 49 42 33 23 13 360 348 347 335 324 314 307 306 300 293 290 287 288 287 282 277 277 277 276 275 271 266 262 261 261 258
62 33 25 16 4 352 339 329 330 322 316 306 301 296 296 296 294 289 287 284 286 288 286 284 282 278 274 271 270 268 267 265
33 5 357 344 340 329 320 320 315 315 307 302 300 298 296 296 294 292 291 288 287 290 289 286 283 279 273 273 277 279 277 275
353 344 340 335 331 324 324 314 315 312 306 304 307 304 301 298 297 299 302 300 299 298 295 292 293 285 295 305 290 283 282 283
330 327 325 327 323 319 310 314 315 308 302 301 304 308 308 310 312 305 298 295 296 294 291 289 285 285 279 272 274 277 273 272
329 329 325 323 321 311 317 316 311 309 308 313 323 325 313 305 299 296 297 293 293 286 283 280 282 282 285 276 269 271 270 266
326 327 323 319 316 325 321 316 316 313 322 325 315 308 304 304 299 296 293 291 286 283 283 281 275 279 273 268 267 274 266 266
328 326 316 314 328 326 316 313 315 322 322 309 305 303 301 303 304 299 290 286 278 273 273 274 273 275 272 265 264 270 266 266
332 325 319 334 327 315 311 314 322 309 300 305 311 314 308 296 288 288 287 283 276 277 279 276 281 274 274 260 252 260 266 265
334 326 326 318 314 325 321 315 300 308 313 312 309 301 289 296 300 296 295 288 288 283 281 280 280 279 265 260 252 251 256 263
328 324 317 320 340 322 307 301 319 318 314 306 300 305 309 318 309 298 306 302 290 297 290 276 281 285 281 312 279 295 247 245
328 330 330 327 314 313 312 327 325 321 308 305 306 312 315 317 315 320 318 291 296 297 299 300 294 297 296 286 281 309 229 203
341 333 317 323 336 332 332 330 329 315 308 308 305 308 321 321 315 310 308 296 288 287 289 289 297 291 290 301 297 306 281 195
337 334 335 343 342 335 337 333 326 318 314 313 312 308 321 319 314 314 301 279 281 283 274 257 282 274 291 299 306 304 270 130
340 346 350 346 344 345 347 339 330 324 319 314 309 306 321 315 322 327 326 327 322 292 285 283 286 294 298 299 301 123 21 170
351 360 354 355 354 353 349 343 337 330 321 314 309 316 319 316 320 328 320 342 342 340 16 312 343 352 357 336 242 141 124 350
352 359 4 3 360 355 354 348 341 337 334 331 328 312 319 317 310 325 351 353 344 8 356 5 3 344 350 16 63 25 64 109
8 12 4 4 0 352 354 357 353 349 343 340 332 324 324 326 331 337 337 340 339 345 353 2 343 4 19 13 30 22 350 156
11 17 12 9 1 354 3 2 3 1 341 351 338 342 341 337 339 339 338 333 340 335 5 46 338 354 15 16 31 11 338 236
9 14 16 10 4 357 6 8 351 26 2 359 357 354 348 348 343 341 344 340 339 339 348 17 342 7 72 22 357 338 343 18